This is the latest recevied weather packets stored in our database for station/object K5EAA-13. If no packets are shown the sender has not sent any weather packets the latest 10 day(s).
| Time | Temp. | Humidity | Pressure | Rain* | Wind** | Luminosity | Snow |
|---|---|---|---|---|---|---|---|
| 1787865608 | 36.67° C | 36% | 1013.7 hPa | 0 mm | - | 533 W/m² | - |
| 1787865307 | 36.67° C | 35% | 1014.1 hPa | 0 mm | - | 523 W/m² | - |
| 1787865003 | 36.67° C | 35% | 1013.6 hPa | 0 mm | - | 560 W/m² | - |
| 1787864698 | 36.67° C | 35% | 1014.1 hPa | 0 mm | - | 567 W/m² | - |
| 1787864397 | 36.67° C | 36% | 1014.1 hPa | 0 mm | - | 438 W/m² | - |
| 1787864092 | 36.67° C | 38% | 1014 hPa | 0 mm | - | 523 W/m² | - |
| 1787863791 | 36.67° C | 38% | 1014 hPa | 0 mm | - | 518 W/m² | - |
| 1787863489 | 36.11° C | 38% | 1014 hPa | 0 mm | - | 533 W/m² | - |
| 1787863185 | 37.22° C | 37% | 1014.2 hPa | 0 mm | - | 574 W/m² | - |
| 1787862881 | 37.22° C | 37% | 1014.1 hPa | 0 mm | - | 586 W/m² | - |
| 1787862580 | 37.22° C | 37% | 1014.4 hPa | 0 mm | - | 624 W/m² | - |
| 1787862276 | 37.22° C | 38% | 1014.3 hPa | 0 mm | - | 713 W/m² | - |
| 1787861976 | 36.67° C | 38% | 1014.4 hPa | 0 mm | - | 710 W/m² | - |
| 1787861671 | 36.67° C | 39% | 1014.6 hPa | 0 mm | - | 715 W/m² | - |
| 1787861369 | 36.67° C | 39% | 1014.5 hPa | 0 mm | - | 717 W/m² | - |
| 1787861064 | 36.67° C | 40% | 1014.8 hPa | 0 mm | - | 644 W/m² | - |
| 1787860763 | 36.11° C | 40% | 1014.8 hPa | 0 mm | - | 614 W/m² | - |
| 1787860459 | 36.11° C | 40% | 1014.7 hPa | 0 mm | - | 553 W/m² | - |
| 1787860158 | 36.67° C | 39% | 1014.6 hPa | 0 mm | - | 621 W/m² | - |
| 1787859854 | 37.22° C | 38% | 1014.6 hPa | 0 mm | - | 827 W/m² | - |
| 1787859549 | 36.11° C | 39% | 1014.9 hPa | 0 mm | - | 827 W/m² | - |
| 1787859249 | 36.11° C | 41% | 1014.9 hPa | 0 mm | - | 754 W/m² | - |
| 1787858946 | 36.11° C | 40% | 1014.8 hPa | 0 mm | - | 644 W/m² | - |
| 1787858641 | 36.11° C | 40% | 1015 hPa | 0 mm | - | 539 W/m² | - |
| 1787858336 | 36.11° C | 40% | 1015 hPa | 0 mm | - | 593 W/m² | - |
* Rain latest hour (hover to see other rain measurements)
** Current wind speed in m/s (hover to see current wind gust speed)